Powrót do katalogu

STARLINK-4394

AktywnyŁącznośćSSO
NORAD 53467·PAYLOAD·🇺🇸 United States

Wystrzelony Aug 12, 2022 z Vandenberg Space Force Base

Loading…

Następne Przeloty (najbliższe 24 godziny)

TLE

ŚwieżeSource: CelesTrak SupGP

Epoka: Sep 14, 2026, 22:00 UTC

1 53467C 22099C   26257.91715278 -.00030352  00000+0 -84229-3 0  2578
2 53467  97.5442  27.9654 0001290  94.9357  97.5899 15.36979200    10

Śledź STARLINK-4394 w czasie rzeczywistym z AllMySat

Download on the App Store